TimeCST,TemperatureF,Dew PointF,Humidity,Sea Level PressureIn,VisibilityMPH,Wind Direction,Wind SpeedMPH,Gust SpeedMPH,PrecipitationIn,Events,Conditions,WindDirDegrees,DateUTC
12:53 AM,8.1,1.9,76,30.27,10.0,NE,13.8,-,N/A,,Overcast,50,2014-01-01 06:53:00
1:53 AM,7.0,1.9,80,30.26,10.0,NE,13.8,-,N/A,,Overcast,50,2014-01-01 07:53:00
2:53 AM,7.0,1.9,80,30.28,9.0,NE,11.5,-,N/A,,Overcast,50,2014-01-01 08:53:00
3:53 AM,7.0,1.0,77,30.28,2.0,NE,12.7,-,0.00,Snow,Light Snow,50,2014-01-01 09:53:00
4:02 AM,7.0,1.9,80,30.23,1.5,NE,9.2,-,0.00,Snow,Light Snow,50,2014-01-01 10:02:00
4:53 AM,6.1,1.0,80,30.29,1.5,NNE,12.7,-,0.00,Snow,Light Snow,30,2014-01-01 10:53:00
5:53 AM,5.0,1.0,84,30.30,1.5,NE,12.7,-,0.01,Snow,Light Snow,40,2014-01-01 11:53:00
6:11 AM,5.0,-0.0,80,30.24,2.0,NE,13.8,-,0.00,Snow,Light Snow,40,2014-01-01 12:11:00
6:35 AM,5.0,-0.0,80,30.24,2.5,NE,12.7,-,0.00,Snow,Light Snow,40,2014-01-01 12:35:00
6:48 AM,5.0,-0.4,78,30.25,3.0,NE,13.8,-,0.00,Snow,Light Snow,40,2014-01-01 12:48:00
6:53 AM,5.0,-0.0,80,30.31,4.0,NE,10.4,-,0.00,,Haze,40,2014-01-01 12:53:00
7:45 AM,3.9,-0.9,80,30.25,2.5,NE,9.2,-,N/A,,Haze,40,2014-01-01 13:45:00
7:51 AM,3.2,-0.4,85,30.25,1.8,NE,10.4,-,N/A,,Haze,50,2014-01-01 13:51:00
7:53 AM,3.9,-0.9,80,30.31,1.5,NE,11.5,-,N/A,,Haze,50,2014-01-01 13:53:00
8:19 AM,3.0,-2.0,80,30.26,2.5,NE,11.5,-,N/A,,Haze,50,2014-01-01 14:19:00
8:28 AM,3.0,-2.0,80,30.27,4.0,NE,11.5,-,N/A,,Haze,50,2014-01-01 14:28:00
8:46 AM,3.9,-2.0,76,30.28,5.0,NE,13.8,-,N/A,,Haze,40,2014-01-01 14:46:00
8:53 AM,3.9,-2.0,76,30.34,5.0,NE,12.7,-,N/A,,Haze,40,2014-01-01 14:53:00
9:27 AM,3.9,-2.0,76,30.29,1.8,NE,12.7,-,0.00,Snow,Light Snow,40,2014-01-01 15:27:00
9:53 AM,3.9,-0.9,80,30.36,0.8,NNE,13.8,-,0.00,Snow,Light Snow,20,2014-01-01 15:53:00
10:19 AM,3.9,-2.0,76,30.30,1.2,NE,15.0,-,0.00,Snow,Light Snow,40,2014-01-01 16:19:00
10:53 AM,5.0,-0.9,76,30.36,2.0,NE,11.5,-,0.00,Snow,Light Snow,40,2014-01-01 16:53:00
11:31 AM,6.1,-0.9,73,30.29,3.0,NNE,13.8,-,0.00,,Haze,30,2014-01-01 17:31:00
11:53 AM,6.1,-0.0,76,30.34,5.0,NNE,13.8,-,0.00,,Haze,20,2014-01-01 17:53:00
12:24 PM,6.1,-0.0,76,30.27,5.0,NNE,13.8,-,N/A,,Haze,20,2014-01-01 18:24:00
12:53 PM,7.0,-0.0,73,30.32,6.0,NNE,13.8,-,N/A,,Haze,20,2014-01-01 18:53:00
1:15 PM,7.0,-0.0,73,30.26,10.0,NNE,12.7,-,N/A,,Mostly Cloudy,30,2014-01-01 19:15:00
1:53 PM,7.0,-0.0,73,30.32,10.0,North,13.8,-,N/A,,Mostly Cloudy,10,2014-01-01 19:53:00
2:37 PM,6.1,-0.9,73,30.26,10.0,North,16.1,-,N/A,,Overcast,10,2014-01-01 20:37:00
2:53 PM,6.1,-2.0,69,30.32,10.0,North,17.3,-,N/A,,Overcast,10,2014-01-01 20:53:00
3:53 PM,6.1,-2.0,69,30.34,10.0,North,15.0,-,N/A,,Overcast,360,2014-01-01 21:53:00
4:53 PM,6.1,-0.9,73,30.36,6.0,North,12.7,-,N/A,,Haze,360,2014-01-01 22:53:00
5:30 PM,5.0,-0.9,76,30.31,5.0,North,13.8,-,0.00,Snow,Light Snow,360,2014-01-01 23:30:00
5:53 PM,5.0,-2.0,73,30.38,5.0,North,11.5,-,0.00,,Haze,360,2014-01-01 23:53:00
6:53 PM,3.9,-2.0,76,30.39,10.0,North,12.7,-,N/A,,Overcast,10,2014-01-02 00:53:00
7:53 PM,3.9,-2.9,73,30.41,10.0,North,11.5,-,N/A,,Overcast,360,2014-01-02 01:53:00
8:53 PM,3.9,-2.0,76,30.43,8.0,North,12.7,-,N/A,,Overcast,360,2014-01-02 02:53:00
9:53 PM,3.9,-2.0,76,30.42,10.0,North,13.8,-,N/A,,Overcast,360,2014-01-02 03:53:00
10:53 PM,5.0,-2.9,70,30.40,10.0,North,11.5,-,N/A,,Overcast,10,2014-01-02 04:53:00
11:53 PM,5.0,-2.9,70,30.40,10.0,North,17.3,-,N/A,,Overcast,350,2014-01-02 05:53:00